sat.trackr.live / text

‹ back to catalog

DS-EO

NORAD 52935 · 2022-072A

PAYLOAD ACTIVE UNKNOWN

§ Identity

Operator
Country
SING
Launch date
2022-06-30
Launch site
SRILR
Launch vehicle
Mass (kg)
RCS (m²)

External: N2YO · Heavens-Above · Gunter

§ Orbital elements

Epoch: 2026-05-25T03:32:23.974080Z

Period
95.13 min
Inclination
9.9950°
Eccentricity
0.0004209
Mean motion
15.13644623 rev/d
Perigee alt
522.2 km
Apogee alt
528.0 km
Semi-major
6,903.2 km
B*
2.0222e-4
RAAN
356.1352°
Arg perigee
332.6076°
Mean anomaly
27.3917°
Rev number
21,501

§ Raw data

DS-EO1 52935U 22072A   26145.14749970  .00004566  00000+0  20222-3 0  99972 52935   9.9950 356.1352 0004209 332.6076  27.3917 15.13644623215018

JSON: /api/v1/satellites/52935 · /tle

For live sub-satellite position, see the globe view (requires WebGL).

§ Visibility from observer

Set your observer location to see the next 7 days of passes ≥ 10°. The values pass through the URL so the page stays shareable.

No JS? Fill the form by hand. The geolocation button needs JavaScript.